[[{"header":{"parameterUnit":"m.s-1","parameterCategory":2,"la1":30.2991,"la2":30.254,"lo1":-89.0895,"lo2":-89.0444,"dy":0.0017,"dx":0.0017,"nx":28,"ny":28,"refTime":"2024-07-08T09:00:00:Z","depth":"0","parameterNumber":2,"parameterNumberName":"U-component_of_CURRENTS"},"data":[0,0,0,0,0,0,0,0,0,0,0,0,0,0,0,0,0,0,0,0,0,0,0,0,0,0,0,0,0,0,0,0,0,0,0,0,0,0,0,0,0,0,0,0,0,0,0,0,0,0,0,0,0,0,0,0,0,0,0.2592,0.2592,0,0.2538,0.2537,0.2536,0.2498,0.2498,0.2498,0.2498,0.2492,0.2492,0.2492,0,0,0,0,0,0,0,0,0,0,0,0,0,0.2691,0.2689,0.2592,0.2592,0.2591,0.2538,0.2537,0.2536,0.2498,0.2498,0.2498,0.2498,0.2492,0.2492,0.2492,0,0,0,0,0,0,0,0,0,0,0,0,0,0.2642,0.2688,0.2593,0.2567,0.2564,0.2538,0.2537,0.2536,0.2498,0.2498,0.2498,0.2498,0.2492,0.2492,0.2492,0.2497,0,0,0.2492,0.2492,0,0,0,0,0,0,0,0,0.2645,0.2638,0.2571,0.2569,0.2566,0.2526,0.2569,0.2525,0.2498,0.2522,0.2498,0.2497,0.2508,0.2507,0.2495,0.2496,0.2496,0.2492,0.2492,0.2492,0.2492,0,0,0,0,0,0,0,0.2648,0.264,0.2569,0.2571,0.2567,0.2567,0.256,0.2561,0.2517,0.252,0.2517,0.2513,0.2507,0.2495,0.2495,0.2496,0.2492,0.2492,0.2492,0.2491,0.2554,0.2556,0,0,0,0,0,0,0.2656,0.2643,0.2571,0.2568,0.2607,0.2566,0.2557,0.2538,0.2516,0.2513,0.2514,0.2512,0.2495,0.2495,0.2494,0.2544,0.2492,0.2491,0.2491,0.2553,0.2555,0.2557,0,0,0,0,0,0,0.2658,0.2649,0.2573,0.2607,0.2597,0.2564,0.2543,0.2537,0.2528,0.2511,0.2508,0.2511,0.2495,0.2494,0.2497,0.2542,0.2491,0.2491,0.2551,0.2553,0.2556,0.2616,0,0,0,0,0,0,0.2661,0.265,0.2644,0.2606,0.2595,0.2564,0.2543,0.2536,0.2526,0.2523,0.2508,0.2507,0.2495,0.2497,0.2497,0.2541,0.2491,0.2549,0.2552,0.2555,0.2612,0.262,0.2627,0,0,0,0,0,0.2664,0.2652,0.2644,0.2636,0.2586,0.2565,0.2559,0.2535,0.2526,0.2525,0.2513,0.2508,0.2518,0.2497,0.2497,0.2543,0.2547,0.2551,0.2555,0.2608,0.2619,0.2627,0,0,0,0,0,0,0.2692,0.2647,0.2637,0.2612,0.2596,0.2559,0.2555,0.2541,0.2529,0.2529,0.2512,0.251,0.254,0.2528,0.2505,0.2572,0.2539,0.2543,0.258,0.259,0.2597,0.2657,0.2491,0,0,0,0,0,0.2697,0.2674,0.2642,0.2625,0.2618,0.2591,0.2581,0.2565,0.2547,0.2541,0.2529,0.2533,0.2555,0.2558,0.2568,0.2588,0.265,0.2624,0.2632,0.2638,0.2688,0.285,0.2879,0.2569,0.2569,0.2569,0,0,0.27,0.2676,0.2662,0.263,0.2614,0.2609,0.2583,0.2571,0.2579,0.2545,0.2552,0.2558,0.2568,0.2599,0.2612,0.2592,0.2744,0.2643,0.2649,0.2696,0.2858,0.2888,0.2916,0.2572,0.2571,0.2571,0,0,0.2701,0.268,0.2665,0.2656,0.2638,0.2626,0.2627,0.2598,0.26,0.2599,0.2601,0.2643,0.2626,0.2674,0.269,0.2751,0.2785,0.2739,0.2822,0.2977,0.3005,0.3031,0.309,0.3121,0.2738,0.2738,0.2738,0,0.2712,0.2686,0.2661,0.2656,0.2659,0.2638,0.2642,0.2641,0.2619,0.2655,0.2608,0.2688,0.2682,0.279,0.2803,0.2777,0.2836,0.2779,0.2992,0.302,0.3045,0.31,0.3133,0.2741,0.2741,0.274,0.274,0,0.2701,0.2692,0.2688,0.2674,0.268,0.2678,0.2681,0.2702,0.2698,0.271,0.2798,0.2803,0.2871,0.2866,0.2843,0.3022,0.2992,0.2989,0.2975,0.3081,0.3129,0.3163,0.2746,0.2745,0.2744,0.2743,0,0,0.2683,0.268,0.2679,0.27,0.2693,0.2705,0.2744,0.2793,0.286,0.2858,0.2965,0.3003,0.3037,0.3063,0.3066,0.3179,0.3367,0.3157,0.3164,0.3226,0.366,0.3418,0.3431,0.341,0.3417,0.3423,0.36,0,0.2682,0.2687,0.2689,0.2723,0.2732,0.2764,0.2813,0.2869,0.2908,0.3004,0.3072,0.3157,0.3102,0.3153,0.3267,0.3367,0.347,0.3317,0.3541,0.3547,0.3331,0.3468,0.32,0.3318,0.3633,0.3639,0.3643,0,0.2658,0.2674,0.2697,0.2777,0.2791,0.2823,0.2945,0.2988,0.3121,0.3162,0.3278,0.3325,0.3499,0.3428,0.3685,0.3592,0.3645,0.3695,0.3703,0.3498,0.3372,0.3276,0.3368,0.3267,0.3695,0.3691,0.3687,0,0.2643,0.2687,0.2718,0.2732,0.2807,0.2869,0.2929,0.3044,0.3132,0.3289,0.3388,0.3555,0.3676,0.3811,0.3876,0.3824,0.4133,0.4075,0.3901,0.3881,0.3709,0.366,0.3749,0.4283,0.4283,0.4283,0.4282,0,0.262,0.2649,0.2725,0.2736,0.2847,0.2892,0.3028,0.3108,0.326,0.3396,0.3489,0.3632,0.3795,0.3951,0.3985,0.4037,0.4232,0.3963,0.3947,0.3706,0.3657,0.3601,0.3576,0.4289,0.4288,0.4286,0.4285,0,0.2574,0.2605,0.2667,0.2775,0.2828,0.2909,0.3086,0.3201,0.3321,0.3514,0.3583,0.3779,0.3938,0.4032,0.4241,0.4164,0.4087,0.4194,0.3833,0.3768,0.3421,0.3406,0.3369,0.3291,0.4043,0.4038,0.4035,0,0.254,0.2558,0.2695,0.2779,0.2833,0.2966,0.3081,0.3216,0.3335,0.3585,0.3695,0.3889,0.3978,0.4131,0.4033,0.4027,0.3958,0.3761,0.3605,0.3403,0.3382,0.3253,0.3184,0.3395,0.3386,0.3379,0.3373,0,0.2512,0.2563,0.2642,0.2818,0.295,0.3067,0.3225,0.3306,0.3476,0.361,0.3774,0.3858,0.3919,0.3757,0.3689,0.3648,0.3509,0.3606,0.3566,0.3027,0.2739,0.2651,0.3222,0.331,0.3317,0.3321,0.3325,0.3327,0.2523,0.2599,0.2742,0.2906,0.3043,0.3145,0.3168,0.3305,0.3423,0.3494,0.3671,0.3634,0.3515,0.3335,0.3286,0.2947,0.305,0.2788,0.2832,0.2753,0.2538,0.2893,0.2841,0.2844,0.2847,0.285,0.2852,0,0.2576,0.2688,0.2842,0.3009,0.3104,0.317,0.3263,0.3209,0.3227,0.3283,0.3302,0.3081,0.2862,0.2738,0.2395,0.2218,0.2143,0.2154,0.199,0.2003,0.2477,0.2303,0.1925,0.1925,0.1925,0.1925,0.1926,0.1926,0.2629,0.2787,0.2876,0.3044,0.3112,0.3103,0.3078,0.2977,0.2936,0.273,0.2544,0.2479,0.2381,0.209,0.181,0.1759,0.1672,0.1469,0.1631,0.2011,0.2076,0.2137,0.197,0.1529,0.1528,0.0995,0.0991,0.0988]},{"header":{"parameterUnit":"m.s-1","parameterCategory":2,"la1":30.2991,"la2":30.254,"lo1":-89.0895,"lo2":-89.0444,"dy":0.0017,"dx":0.0017,"nx":28,"ny":28,"refTime":"2024-07-08T09:00:00:Z","depth":"0","parameterNumber":3,"parameterNumberName":"V-component_of_CURRENTS"},"data":[0,0,0,0,0,0,0,0,0,0,0,0,0,0,0,0,0,0,0,0,0,0,0,0,0,0,0,0,0,0,0,0,0,0,0,0,0,0,0,0,0,0,0,0,0,0,0,0,0,0,0,0,0,0,0,0,0,0,0.0254,0.0254,0,0.0231,0.0231,0.023,0.0212,0.0212,0.0212,0.0212,0.0174,0.0173,0.0172,0,0,0,0,0,0,0,0,0,0,0,0,0,0.0256,0.0256,0.0254,0.0254,0.0253,0.0231,0.0231,0.023,0.0212,0.0212,0.0212,0.0212,0.0174,0.0173,0.0172,0,0,0,0,0,0,0,0,0,0,0,0,0,0.0245,0.0256,0.0254,0.0242,0.0241,0.0231,0.0231,0.023,0.0212,0.0212,0.0212,0.0212,0.0175,0.0173,0.0172,0.0167,0,0,0.0168,0.0167,0,0,0,0,0,0,0,0,0.0246,0.0245,0.0244,0.0243,0.0242,0.0225,0.0218,0.0208,0.0212,0.0222,0.0212,0.0212,0.019,0.0188,0.0183,0.0165,0.0163,0.0168,0.0167,0.0166,0.0166,0,0,0,0,0,0,0,0.0247,0.0246,0.0244,0.0244,0.0242,0.0229,0.0228,0.0216,0.0206,0.0221,0.022,0.0219,0.0189,0.0184,0.0182,0.0163,0.0168,0.0166,0.0166,0.0165,0.0172,0.0173,0,0,0,0,0,0,0.0253,0.0247,0.0245,0.0243,0.0244,0.023,0.0228,0.023,0.0207,0.0204,0.0219,0.0218,0.0186,0.0183,0.018,0.0203,0.0166,0.0165,0.0164,0.0171,0.0172,0.0173,0,0,0,0,0,0,0.0253,0.0253,0.0246,0.0245,0.0243,0.023,0.0232,0.0229,0.0226,0.0206,0.0202,0.0219,0.0186,0.0182,0.0176,0.02,0.0164,0.0163,0.017,0.0171,0.0173,0.0229,0,0,0,0,0,0,0.0253,0.0253,0.0255,0.0246,0.0244,0.0245,0.0232,0.0229,0.0226,0.0225,0.0204,0.02,0.0186,0.0178,0.0174,0.0198,0.0162,0.0169,0.0171,0.0172,0.0226,0.0233,0.0238,0,0,0,0,0,0.0253,0.0258,0.0255,0.0255,0.0247,0.0245,0.0243,0.0232,0.0226,0.0228,0.0216,0.0201,0.0188,0.0177,0.0173,0.0197,0.0168,0.017,0.0172,0.0224,0.0231,0.0238,0,0,0,0,0,0,0.0255,0.0256,0.0253,0.0256,0.0254,0.0243,0.0243,0.0236,0.0227,0.0226,0.0206,0.0201,0.0208,0.0193,0.0182,0.0206,0.0179,0.018,0.022,0.0227,0.0232,0.027,0.0161,0,0,0,0,0,0.0258,0.0264,0.026,0.0263,0.0264,0.0254,0.0252,0.0247,0.0238,0.0234,0.0221,0.0213,0.0214,0.0212,0.0205,0.0211,0.0232,0.0226,0.0232,0.0238,0.0266,0.034,0.0356,0.0181,0.0181,0.0181,0,0,0.0258,0.026,0.0262,0.0264,0.0261,0.0272,0.0252,0.0254,0.0267,0.0232,0.0241,0.0229,0.022,0.0232,0.0235,0.0222,0.0289,0.024,0.0245,0.0271,0.0344,0.0362,0.0377,0.0182,0.0182,0.0182,0,0,0.0269,0.0266,0.028,0.0282,0.0285,0.0282,0.0286,0.028,0.0282,0.0285,0.0274,0.0284,0.0266,0.028,0.0281,0.0317,0.0318,0.0307,0.0368,0.0439,0.0455,0.0469,0.0482,0.0497,0.0311,0.0311,0.0311,0,0.027,0.029,0.0281,0.0297,0.0308,0.0292,0.0313,0.0313,0.0305,0.0325,0.0296,0.0323,0.0299,0.0351,0.0357,0.0334,0.0357,0.0339,0.045,0.0464,0.0478,0.0489,0.0505,0.0314,0.0313,0.0313,0.0313,0,0.0296,0.0312,0.0321,0.0341,0.0347,0.0362,0.0365,0.0376,0.0373,0.0382,0.0423,0.0405,0.0434,0.0419,0.0393,0.048,0.0456,0.0449,0.0436,0.05,0.0505,0.0521,0.0318,0.0317,0.0316,0.0315,0,0,0.0304,0.0335,0.034,0.0366,0.0377,0.0391,0.0417,0.0452,0.0502,0.0488,0.0567,0.0548,0.0556,0.0561,0.0543,0.0587,0.067,0.056,0.0562,0.0581,0.0799,0.0711,0.0719,0.0692,0.0696,0.0699,0.0751,0,0.0333,0.038,0.0385,0.0434,0.0462,0.0466,0.0501,0.0529,0.0557,0.0626,0.0632,0.0689,0.0607,0.0641,0.0673,0.0701,0.0721,0.0655,0.0729,0.073,0.0653,0.0738,0.0725,0.0767,0.0766,0.0769,0.0771,0,0.0365,0.0396,0.0448,0.0506,0.052,0.0547,0.0627,0.0653,0.0733,0.0762,0.0819,0.0841,0.0912,0.0835,0.0907,0.0874,0.0838,0.083,0.0833,0.0753,0.0674,0.071,0.0795,0.0746,0.0795,0.0793,0.0791,0,0.0394,0.0446,0.0495,0.0511,0.0565,0.0602,0.0632,0.0701,0.0768,0.0871,0.0968,0.1016,0.1101,0.1086,0.1044,0.1004,0.1114,0.1059,0.093,0.0921,0.0927,0.0912,0.0988,0.1098,0.1098,0.1098,0.1098,0,0.043,0.0471,0.0517,0.0546,0.0622,0.0642,0.074,0.0781,0.0897,0.1038,0.1053,0.12,0.118,0.1232,0.1136,0.1093,0.1186,0.097,0.0954,0.0937,0.0923,0.0891,0.0845,0.11,0.1099,0.1099,0.1099,0,0.0453,0.048,0.0544,0.0612,0.0637,0.0691,0.0799,0.0895,0.0987,0.1191,0.125,0.1388,0.1457,0.138,0.138,0.1239,0.114,0.1115,0.1058,0.1033,0.0838,0.0795,0.0858,0.0839,0.1009,0.1007,0.1006,0,0.047,0.0506,0.0587,0.0638,0.0672,0.0751,0.0832,0.0923,0.1061,0.1323,0.1466,0.1588,0.1699,0.1621,0.1405,0.122,0.1134,0.1048,0.0957,0.0856,0.0799,0.0781,0.076,0.0974,0.0973,0.0972,0.0971,0,0.0512,0.054,0.0594,0.0696,0.0784,0.0895,0.1035,0.1155,0.1333,0.1524,0.1793,0.1896,0.1825,0.1668,0.1375,0.1227,0.1016,0.1013,0.0977,0.084,0.077,0.0733,0.0863,0.0961,0.0962,0.0963,0.0963,0.0963,0.0546,0.0594,0.0675,0.0774,0.089,0.1073,0.1186,0.1379,0.1611,0.1907,0.1989,0.2124,0.1875,0.1493,0.1308,0.0926,0.0942,0.0798,0.077,0.0773,0.0721,0.0782,0.0811,0.0811,0.0811,0.0811,0.0811,0,0.0599,0.0663,0.0756,0.0908,0.1066,0.1113,0.1359,0.1502,0.1794,0.1996,0.2178,0.207,0.1786,0.1448,0.0946,0.0732,0.0682,0.0629,0.0643,0.0643,0.0773,0.0733,0.0668,0.0668,0.0668,0.0668,0.0668,0.0668,0.0635,0.0731,0.0785,0.1044,0.1168,0.1392,0.1539,0.1752,0.1919,0.2104,0.2114,0.2102,0.1847,0.1144,0.0717,0.0619,0.0541,0.0475,0.0456,0.0561,0.0576,0.059,0.0547,0.0443,0.0443,0.0365,0.0364,0.0363]}],[{"header":{"parameterUnit":"m.s-1","parameterCategory":2,"la1":30.2991,"la2":30.254,"lo1":-89.0895,"lo2":-89.0444,"dy":0.0017,"dx":0.0017,"nx":28,"ny":28,"refTime":"2024-07-08T09:00:00:Z","depth":"2","parameterNumber":2,"parameterNumberName":"U-component_of_CURRENTS"},"data":[0,0,0,0,0,0,0,0,0,0,0,0,0,0,0,0,0,0,0,0,0,0,0,0,0,0,0,0,0,0,0,0,0,0,0,0,0,0,0,0,0,0,0,0,0,0,0,0,0,0,0,0,0,0,0,0,0,0,0.2268,0.2268,0,0.2238,0.2237,0.2237,0.222,0.222,0.222,0.222,0.2235,0.2236,0.2236,0,0,0,0,0,0,0,0,0,0,0,0,0,0.2326,0.2324,0.2268,0.2268,0.2267,0.2238,0.2237,0.2237,0.222,0.222,0.222,0.222,0.2235,0.2235,0.2236,0,0,0,0,0,0,0,0,0,0,0,0,0,0.2297,0.2324,0.2268,0.2256,0.2255,0.2238,0.2237,0.2237,0.222,0.222,0.222,0.222,0.2235,0.2235,0.2236,0.2237,0,0,0.2237,0.2238,0,0,0,0,0,0,0,0,0.2299,0.2295,0.2258,0.2257,0.2256,0.2234,0.2263,0.2239,0.222,0.2232,0.222,0.222,0.224,0.224,0.2231,0.2237,0.2238,0.2238,0.2238,0.2238,0.2238,0,0,0,0,0,0,0,0.2301,0.2296,0.2254,0.2258,0.2257,0.2258,0.2254,0.2258,0.2235,0.2231,0.223,0.2229,0.2239,0.2231,0.2232,0.2238,0.2237,0.2238,0.2238,0.2238,0.2308,0.231,0,0,0,0,0,0,0.2306,0.2298,0.2255,0.2254,0.228,0.2257,0.2252,0.224,0.2234,0.2234,0.2229,0.2228,0.223,0.2231,0.2232,0.2284,0.2238,0.2238,0.2239,0.2307,0.2309,0.231,0,0,0,0,0,0,0.2307,0.2302,0.2257,0.2277,0.2272,0.2256,0.2242,0.2239,0.2242,0.2232,0.2232,0.2236,0.223,0.2232,0.2238,0.2283,0.2239,0.2239,0.2305,0.2307,0.231,0.2356,0,0,0,0,0,0,0.2309,0.2302,0.2303,0.2277,0.2271,0.2257,0.2242,0.2238,0.2241,0.224,0.2239,0.2239,0.223,0.2237,0.2238,0.2283,0.224,0.2303,0.2306,0.2309,0.2353,0.236,0.2366,0,0,0,0,0,0.2311,0.2305,0.2303,0.2298,0.2269,0.2257,0.2254,0.2243,0.2241,0.2245,0.2238,0.224,0.2258,0.2237,0.2239,0.2285,0.2302,0.2305,0.2309,0.235,0.2358,0.2366,0,0,0,0,0,0,0.2331,0.2302,0.2299,0.2286,0.228,0.2255,0.2258,0.2252,0.2248,0.2251,0.2241,0.2241,0.2271,0.2268,0.2246,0.2316,0.2288,0.2292,0.2319,0.2327,0.2334,0.2386,0.224,0,0,0,0,0,0.2336,0.2324,0.2305,0.2298,0.2296,0.2282,0.2279,0.2272,0.2262,0.2261,0.2259,0.2267,0.2285,0.2295,0.2303,0.233,0.2376,0.2367,0.2374,0.238,0.2424,0.2535,0.2556,0.2322,0.2322,0.2322,0,0,0.234,0.2326,0.2319,0.2302,0.2296,0.2294,0.228,0.228,0.2288,0.2265,0.2278,0.2286,0.2296,0.2326,0.2342,0.233,0.2461,0.2384,0.2389,0.2431,0.2541,0.2564,0.2585,0.2324,0.2324,0.2324,0,0,0.2344,0.2334,0.2328,0.2325,0.2321,0.2312,0.2317,0.2304,0.2311,0.2316,0.2318,0.2356,0.2354,0.239,0.2404,0.2457,0.249,0.2459,0.2538,0.2644,0.2665,0.2684,0.2735,0.2758,0.2466,0.2466,0.2466,0,0.2356,0.2339,0.2328,0.2327,0.2331,0.2324,0.2329,0.2333,0.2326,0.2357,0.2328,0.2396,0.2396,0.2478,0.2499,0.2477,0.2527,0.2501,0.2655,0.2676,0.2695,0.2742,0.2768,0.2468,0.2468,0.2468,0.2467,0,0.235,0.2348,0.2347,0.2342,0.235,0.2351,0.2358,0.2378,0.2384,0.2402,0.2475,0.2482,0.254,0.2544,0.2536,0.2678,0.2662,0.2647,0.2638,0.2722,0.2765,0.2791,0.2472,0.2471,0.247,0.247,0,0,0.2342,0.2342,0.2343,0.2357,0.2358,0.2368,0.2398,0.2439,0.2492,0.2506,0.2592,0.2633,0.2671,0.2695,0.2706,0.2798,0.2948,0.2792,0.2796,0.2848,0.3163,0.2947,0.2954,0.2968,0.2974,0.2978,0.3125,0,0.2342,0.2346,0.235,0.2373,0.2378,0.2403,0.2445,0.2493,0.2527,0.2608,0.2671,0.2752,0.2718,0.2774,0.2858,0.295,0.3026,0.2909,0.3072,0.3076,0.2881,0.2981,0.2693,0.2784,0.315,0.3155,0.3158,0,0.2326,0.2336,0.2351,0.2407,0.2419,0.2445,0.2533,0.2573,0.2686,0.2728,0.2825,0.2876,0.3034,0.2979,0.3185,0.3118,0.3157,0.32,0.3206,0.3021,0.2911,0.2768,0.2817,0.3201,0.3197,0.3194,0.3191,0,0.2311,0.2341,0.236,0.2369,0.2426,0.2474,0.2525,0.262,0.2698,0.2837,0.2928,0.3064,0.3184,0.3278,0.3344,0.3307,0.3541,0.3491,0.332,0.3303,0.3099,0.3054,0.3634,0.3633,0.3633,0.3633,0.3632,0,0.2291,0.2311,0.2364,0.2372,0.2453,0.2495,0.2624,0.2671,0.2808,0.292,0.3016,0.3128,0.3282,0.3403,0.3424,0.3448,0.3607,0.3372,0.3349,0.3096,0.305,0.3447,0.3423,0.3638,0.3637,0.3636,0.3635,0,0.2257,0.228,0.2322,0.2401,0.2441,0.2508,0.2686,0.2772,0.2896,0.3047,0.3116,0.3271,0.3402,0.3479,0.3637,0.3549,0.3587,0.3536,0.319,0.3122,0.3258,0.3235,0.3401,0.3395,0.339,0.3386,0.3382,0,0.2231,0.224,0.2343,0.2386,0.2425,0.2558,0.2649,0.2798,0.2882,0.3104,0.3157,0.3343,0.3372,0.3485,0.3407,0.3382,0.3496,0.3082,0.2942,0.3284,0.3247,0.3231,0.3216,0.2693,0.2684,0.2677,0.2671,0,0.2198,0.2242,0.2297,0.2363,0.2455,0.26,0.2726,0.2822,0.2987,0.3067,0.3168,0.3212,0.3261,0.3079,0.3013,0.2958,0.3058,0.2925,0.346,0.2753,0.2617,0.2579,0.2588,0.2607,0.2613,0.2618,0.2622,0.2624,0.2201,0.2241,0.2298,0.2366,0.2475,0.26,0.2639,0.2752,0.2852,0.2869,0.301,0.2909,0.2883,0.2603,0.2499,0.2425,0.2634,0.2504,0.2529,0.2561,0.2409,0.2267,0.2162,0.2166,0.2169,0.2172,0.2175,0,0.2177,0.2239,0.2284,0.2369,0.2419,0.2523,0.2633,0.2597,0.2591,0.2628,0.2587,0.2287,0.21,0.2108,0.1865,0.1801,0.1817,0.1737,0.1753,0.1816,0.1873,0.1689,0.1251,0.1248,0.1246,0.1244,0,0,0.2181,0.2199,0.2212,0.2274,0.2344,0.2367,0.2398,0.2299,0.2251,0.2107,0.1979,0.2014,0.2043,0.1643,0.1549,0.1373,0.1603,0.131,0.2049,0.2135,0.2189,0.2303,0.2087,0,0,0,0,0]},{"header":{"parameterUnit":"m.s-1","parameterCategory":2,"la1":30.2991,"la2":30.254,"lo1":-89.0895,"lo2":-89.0444,"dy":0.0017,"dx":0.0017,"nx":28,"ny":28,"refTime":"2024-07-08T09:00:00:Z","depth":"2","parameterNumber":3,"parameterNumberName":"V-component_of_CURRENTS"},"data":[0,0,0,0,0,0,0,0,0,0,0,0,0,0,0,0,0,0,0,0,0,0,0,0,0,0,0,0,0,0,0,0,0,0,0,0,0,0,0,0,0,0,0,0,0,0,0,0,0,0,0,0,0,0,0,0,0,0,0.0117,0.0116,0,0.0097,0.0097,0.0097,0.0084,0.0084,0.0084,0.0084,0.0049,0.0048,0.0047,0,0,0,0,0,0,0,0,0,0,0,0,0,0.0117,0.0117,0.0117,0.0116,0.0116,0.0097,0.0097,0.0097,0.0084,0.0084,0.0084,0.0084,0.0049,0.0048,0.0047,0,0,0,0,0,0,0,0,0,0,0,0,0,0.0108,0.0117,0.0117,0.0108,0.0107,0.0097,0.0097,0.0096,0.0084,0.0084,0.0084,0.0084,0.0049,0.0048,0.0046,0.0038,0,0,0.0042,0.0042,0,0,0,0,0,0,0,0,0.0109,0.0108,0.011,0.0109,0.0108,0.0094,0.0084,0.0076,0.0084,0.0092,0.0084,0.0084,0.0063,0.006,0.0056,0.0036,0.0035,0.0042,0.0041,0.0041,0.004,0,0,0,0,0,0,0,0.0109,0.0109,0.0108,0.0109,0.0108,0.0097,0.0096,0.0082,0.0076,0.0091,0.009,0.009,0.0062,0.0057,0.0055,0.0034,0.0042,0.0041,0.004,0.004,0.0036,0.0037,0,0,0,0,0,0,0.0115,0.0109,0.0109,0.0107,0.0109,0.0097,0.0096,0.0097,0.0077,0.0074,0.009,0.0089,0.0059,0.0056,0.0053,0.0067,0.0041,0.0039,0.0039,0.0036,0.0037,0.0037,0,0,0,0,0,0,0.0115,0.0115,0.0109,0.0108,0.0107,0.0097,0.0099,0.0097,0.0095,0.0076,0.0073,0.009,0.0059,0.0055,0.0047,0.0065,0.0039,0.0037,0.0035,0.0036,0.0037,0.0078,0,0,0,0,0,0,0.0115,0.0115,0.0117,0.0109,0.0107,0.0108,0.0099,0.0097,0.0095,0.0094,0.0076,0.0072,0.0059,0.0049,0.0046,0.0062,0.0036,0.0034,0.0035,0.0037,0.0076,0.0081,0.0085,0,0,0,0,0,0.0115,0.0117,0.0117,0.0117,0.0111,0.0108,0.0106,0.0098,0.0095,0.0096,0.0085,0.0073,0.0056,0.0048,0.0044,0.0061,0.0033,0.0035,0.0037,0.0074,0.008,0.0085,0,0,0,0,0,0,0.0113,0.0116,0.0116,0.0117,0.0116,0.0106,0.0105,0.0101,0.0093,0.0093,0.0075,0.0071,0.0072,0.006,0.0052,0.0065,0.0046,0.0047,0.0076,0.0081,0.0085,0.0108,0.0035,0,0,0,0,0,0.0115,0.0121,0.0119,0.0121,0.0122,0.0115,0.0113,0.011,0.0102,0.0099,0.0087,0.0079,0.0075,0.0073,0.0063,0.0066,0.0069,0.0076,0.0081,0.0085,0.0101,0.0134,0.0144,0.0043,0.0043,0.0043,0,0,0.0114,0.0117,0.0119,0.0121,0.0119,0.0127,0.0113,0.0114,0.0123,0.0096,0.0101,0.0089,0.0078,0.0083,0.0084,0.0076,0.011,0.0087,0.009,0.0104,0.0137,0.0147,0.0156,0.0044,0.0044,0.0044,0,0,0.012,0.0119,0.0129,0.0132,0.0135,0.0133,0.0137,0.0133,0.0134,0.0136,0.0124,0.0125,0.0111,0.0114,0.0113,0.0136,0.0129,0.0133,0.0175,0.0208,0.0217,0.0225,0.0219,0.0227,0.0139,0.0139,0.0139,0,0.0119,0.0134,0.013,0.0143,0.015,0.0141,0.0155,0.0155,0.0149,0.0161,0.0144,0.0151,0.0131,0.0157,0.0164,0.0147,0.0155,0.0155,0.0215,0.0223,0.0231,0.0223,0.0231,0.0141,0.0141,0.014,0.014,0,0.0137,0.0149,0.0155,0.0173,0.0176,0.0187,0.019,0.0197,0.0196,0.0202,0.0222,0.0203,0.0217,0.0206,0.0189,0.0236,0.0219,0.0214,0.0204,0.0244,0.0232,0.024,0.0144,0.0143,0.0143,0.0142,0,0,0.014,0.0165,0.0169,0.0188,0.0197,0.0206,0.0222,0.0244,0.0276,0.0266,0.0316,0.0294,0.0298,0.0298,0.0283,0.0302,0.0341,0.0286,0.0286,0.0283,0.0395,0.0339,0.0341,0.0355,0.0357,0.0359,0.0357,0,0.016,0.0195,0.0199,0.0233,0.0254,0.0255,0.0278,0.0296,0.0312,0.0357,0.0354,0.0394,0.0331,0.0358,0.0362,0.0371,0.0366,0.034,0.0355,0.0355,0.0304,0.035,0.0366,0.0364,0.0364,0.0365,0.0366,0,0.0184,0.0207,0.0244,0.0283,0.0293,0.031,0.0359,0.0379,0.0429,0.045,0.0481,0.0497,0.0535,0.048,0.049,0.0483,0.0437,0.0419,0.0419,0.0363,0.0314,0.0329,0.0376,0.0378,0.0377,0.0376,0.0375,0,0.0206,0.0242,0.0277,0.0288,0.0325,0.0346,0.0367,0.041,0.0461,0.0531,0.0612,0.0616,0.0683,0.0633,0.0583,0.0558,0.0588,0.0549,0.0437,0.043,0.0445,0.0437,0.0535,0.0535,0.0535,0.0535,0.0535,0,0.0234,0.0262,0.0293,0.0314,0.0358,0.0378,0.0434,0.0464,0.0555,0.0671,0.0675,0.0782,0.0736,0.0749,0.0644,0.0573,0.0632,0.0458,0.0442,0.0454,0.0448,0.0464,0.0456,0.0535,0.0535,0.0535,0.0535,0,0.0254,0.0273,0.0319,0.0363,0.0369,0.0407,0.0475,0.0542,0.0629,0.0797,0.0852,0.0946,0.0971,0.0876,0.0819,0.0685,0.0595,0.0534,0.0528,0.051,0.039,0.0384,0.0428,0.0426,0.0425,0.0424,0.0423,0,0.0268,0.0294,0.0345,0.0377,0.0396,0.0441,0.0485,0.0557,0.0672,0.0908,0.1031,0.1113,0.1169,0.103,0.0832,0.0633,0.0595,0.0488,0.0428,0.0407,0.0387,0.0383,0.0379,0.0455,0.0454,0.0453,0.0453,0,0.0298,0.0319,0.0361,0.0422,0.0471,0.0538,0.0639,0.0745,0.091,0.1082,0.1322,0.1381,0.1264,0.1086,0.0794,0.0651,0.052,0.0467,0.0504,0.0465,0.0429,0.0409,0.0405,0.0448,0.0449,0.0449,0.0449,0.045,0.0325,0.0363,0.0422,0.0483,0.056,0.0702,0.0793,0.095,0.116,0.1437,0.1463,0.1525,0.1312,0.0931,0.0709,0.0477,0.0488,0.0376,0.038,0.0384,0.0373,0.0335,0.0333,0.0333,0.0333,0.0333,0.0333,0,0.0361,0.0411,0.0478,0.0598,0.0729,0.0744,0.095,0.1077,0.1353,0.1485,0.1618,0.1392,0.1179,0.0933,0.0591,0.0369,0.0363,0.029,0.0338,0.0345,0.035,0.0339,0.0289,0.0288,0.0288,0.0287,0,0,0.0387,0.0457,0.0498,0.0726,0.0837,0.1024,0.1162,0.1339,0.1461,0.1574,0.1565,0.1489,0.1219,0.0941,0.0674,0.0491,0.0461,0.0444,0.0504,0.0601,0.0608,0.0427,0.042,0,0,0,0,0]}],[{"header":{"parameterUnit":"m.s-1","parameterCategory":2,"la1":30.2991,"la2":30.254,"lo1":-89.0895,"lo2":-89.0444,"dy":0.0017,"dx":0.0017,"nx":28,"ny":28,"refTime":"2024-07-08T09:00:00:Z","depth":"4","parameterNumber":2,"parameterNumberName":"U-component_of_CURRENTS"},"data":[0,0,0,0,0,0,0,0,0,0,0,0,0,0,0,0,0,0,0,0,0,0,0,0,0,0,0,0,0,0,0,0,0,0,0,0,0,0,0,0,0,0,0,0,0,0,0,0,0,0,0,0,0,0,0,0,0,0,0.1357,0.1357,0,0.1379,0.1379,0.1379,0.1414,0.1415,0.1415,0.1416,0.143,0.143,0.143,0,0,0,0,0,0,0,0,0,0,0,0,0,0.1338,0.1338,0.1357,0.1357,0.1358,0.1379,0.1379,0.1379,0.1414,0.1415,0.1416,0.1417,0.1431,0.143,0.143,0,0,0,0,0,0,0,0,0,0,0,0,0,0.135,0.1338,0.1357,0.1379,0.1382,0.1379,0.1379,0.1379,0.1413,0.1415,0.1416,0.1417,0.1431,0.143,0.1429,0.14,0,0,0.1428,0.1427,0,0,0,0,0,0,0,0,0.1349,0.135,0.1375,0.1378,0.1381,0.1397,0.1378,0.1387,0.1413,0.1399,0.1416,0.1418,0.1419,0.142,0.1417,0.1401,0.1401,0.1427,0.1427,0.1427,0.1427,0,0,0,0,0,0,0,0.1348,0.1349,0.1363,0.1376,0.1379,0.1387,0.139,0.138,0.1399,0.14,0.1403,0.1409,0.142,0.1418,0.1418,0.1402,0.1428,0.1427,0.1427,0.1426,0.1466,0.1468,0,0,0,0,0,0,0.1349,0.1348,0.1362,0.1364,0.137,0.1386,0.1389,0.1388,0.14,0.1403,0.1408,0.1411,0.1418,0.1419,0.1419,0.1468,0.1427,0.1426,0.1426,0.1465,0.1467,0.1468,0,0,0,0,0,0,0.1349,0.135,0.1361,0.1359,0.1362,0.1386,0.1384,0.1388,0.142,0.1407,0.141,0.144,0.1419,0.142,0.1441,0.1466,0.1426,0.1425,0.1463,0.1466,0.1468,0.1514,0,0,0,0,0,0,0.1348,0.1349,0.1364,0.1359,0.1362,0.1381,0.1383,0.1388,0.1421,0.1425,0.1434,0.1435,0.142,0.1442,0.1441,0.1465,0.1425,0.1461,0.1464,0.1467,0.1511,0.1518,0.1523,0,0,0,0,0,0.1347,0.1354,0.1364,0.1367,0.1376,0.1382,0.1384,0.1404,0.1421,0.1436,0.1448,0.1436,0.1459,0.1443,0.144,0.1465,0.146,0.1464,0.1467,0.1508,0.1516,0.1523,0,0,0,0,0,0,0.1356,0.1358,0.137,0.1379,0.1393,0.139,0.141,0.1421,0.1441,0.1457,0.1446,0.1447,0.148,0.1466,0.1449,0.1487,0.1461,0.1463,0.1493,0.15,0.1507,0.1516,0.1424,0,0,0,0,0,0.1364,0.1372,0.1377,0.139,0.1399,0.1412,0.1424,0.1437,0.1447,0.146,0.1468,0.1477,0.1484,0.1489,0.1494,0.1504,0.1519,0.1523,0.1529,0.1535,0.1543,0.1616,0.163,0.1479,0.1479,0.1479,0,0,0.1372,0.1376,0.1383,0.1394,0.1407,0.1417,0.1423,0.145,0.1465,0.1456,0.1492,0.1503,0.1495,0.1516,0.1528,0.151,0.1579,0.1539,0.1543,0.1548,0.1621,0.1636,0.1649,0.1481,0.1481,0.148,0,0,0.1383,0.1398,0.1408,0.1419,0.1446,0.1446,0.1462,0.148,0.1502,0.1529,0.1533,0.1563,0.1569,0.1571,0.1568,0.1612,0.1617,0.162,0.1651,0.1723,0.1736,0.1748,0.1758,0.1771,0.1616,0.1617,0.1617,0,0.14,0.1402,0.1415,0.1428,0.1437,0.1463,0.1473,0.1492,0.152,0.1537,0.1553,0.1591,0.1594,0.1608,0.1633,0.1626,0.1656,0.1619,0.1732,0.1744,0.1756,0.1764,0.1777,0.1619,0.1619,0.1619,0.1618,0,0.1404,0.1421,0.143,0.1448,0.1462,0.1477,0.1498,0.1526,0.1559,0.1579,0.1628,0.1641,0.1664,0.1673,0.1668,0.174,0.173,0.1737,0.1712,0.1774,0.1778,0.1791,0.1623,0.1622,0.1621,0.1621,0,0,0.14,0.1427,0.1435,0.1431,0.1472,0.1465,0.1509,0.1533,0.1556,0.1613,0.1656,0.1686,0.1719,0.1721,0.1725,0.1787,0.1888,0.1807,0.181,0.1816,0.2023,0.1863,0.1862,0.1935,0.1938,0.1941,0.1983,0,0.1403,0.1413,0.1433,0.1437,0.1435,0.1468,0.1496,0.1531,0.1573,0.1628,0.1678,0.173,0.1727,0.176,0.1821,0.1885,0.1931,0.1874,0.1963,0.1965,0.1816,0.1875,0.1951,0.1992,0.1995,0.1997,0.1999,0,0.1397,0.1397,0.1404,0.1407,0.1412,0.1422,0.1449,0.1484,0.1573,0.1626,0.1697,0.175,0.1841,0.1851,0.1971,0.1946,0.1992,0.2032,0.2035,0.1882,0.1831,0.1926,0.2022,0.2021,0.2019,0.2017,0.2016,0,0.1354,0.137,0.1364,0.1368,0.1387,0.1394,0.1418,0.1486,0.1525,0.1649,0.1721,0.1806,0.1899,0.1974,0.206,0.2043,0.2201,0.2175,0.2054,0.2041,0.2151,0.2138,0.2269,0.2268,0.2268,0.2268,0.2268,0,0.1327,0.1323,0.1337,0.1327,0.1306,0.1356,0.137,0.1419,0.1529,0.1597,0.1728,0.1798,0.1959,0.2058,0.2094,0.2109,0.2225,0.2065,0.2055,0.2163,0.2151,0.2158,0.2144,0.227,0.2269,0.2269,0.2269,0,0.1279,0.1305,0.1271,0.1278,0.1284,0.1267,0.1331,0.134,0.1492,0.1599,0.1664,0.1847,0.1967,0.2067,0.2204,0.2148,0.2177,0.2154,0.2243,0.2236,0.1948,0.1937,0.1992,0.1987,0.1983,0.198,0.1977,0,0.1252,0.1239,0.1213,0.1173,0.1171,0.1176,0.1181,0.1306,0.1345,0.1597,0.1639,0.1833,0.1935,0.1992,0.2093,0.212,0.2106,0.2093,0.2026,0.1942,0.1928,0.1923,0.1917,0.197,0.1969,0.1968,0.1967,0,0.1174,0.1173,0.1127,0.1054,0.1024,0.102,0.1061,0.1099,0.1283,0.1435,0.1596,0.1693,0.1825,0.1901,0.196,0.1971,0.2083,0.2048,0.2056,0.1992,0.1916,0.1904,0.1904,0.1952,0.1954,0.1956,0.1957,0,0.1101,0.103,0.0968,0.0896,0.0879,0.0881,0.0915,0.0989,0.1079,0.1383,0.1421,0.1642,0.1812,0.1823,0.1863,0.1875,0.1828,0.1765,0.1786,0.1803,0.172,0.1594,0.1532,0,0,0,0,0,0.101,0.0911,0.0816,0.073,0.0731,0.0755,0.0835,0.0898,0.1106,0.1175,0.1311,0.1426,0.1544,0.1629,0.1598,0.1724,0.1802,0.1675,0.173,0.1871,0.1888,0.1808,0,0,0,0,0,0,0.0929,0.083,0.0762,0.0646,0.0605,0.0609,0.0689,0.0819,0.0871,0.1096,0.1157,0.1325,0.1434,0.1561,0.1575,0.1595,0.1593,0.1789,0.1784,0.1862,0.1877,0.1891,0.1814,0,0,0,0,0]},{"header":{"parameterUnit":"m.s-1","parameterCategory":2,"la1":30.2991,"la2":30.254,"lo1":-89.0895,"lo2":-89.0444,"dy":0.0017,"dx":0.0017,"nx":28,"ny":28,"refTime":"2024-07-08T09:00:00:Z","depth":"4","parameterNumber":3,"parameterNumberName":"V-component_of_CURRENTS"},"data":[0,0,0,0,0,0,0,0,0,0,0,0,0,0,0,0,0,0,0,0,0,0,0,0,0,0,0,0,0,0,0,0,0,0,0,0,0,0,0,0,0,0,0,0,0,0,0,0,0,0,0,0,0,0,0,0,0,0,0.0079,0.0079,0,0.0066,0.0066,0.0066,0.006,0.006,0.006,0.006,0.004,0.0039,0.0038,0,0,0,0,0,0,0,0,0,0,0,0,0,0.0079,0.0079,0.0079,0.0079,0.0078,0.0066,0.0066,0.0066,0.006,0.006,0.006,0.006,0.004,0.0039,0.0038,0,0,0,0,0,0,0,0,0,0,0,0,0,0.0074,0.0079,0.0079,0.0074,0.0074,0.0066,0.0066,0.0066,0.006,0.006,0.006,0.006,0.004,0.0039,0.0038,0.0031,0,0,0.0035,0.0035,0,0,0,0,0,0,0,0,0.0074,0.0074,0.0075,0.0075,0.0074,0.0065,0.0059,0.0054,0.006,0.0065,0.006,0.006,0.0048,0.0046,0.0043,0.003,0.003,0.0035,0.0035,0.0034,0.0034,0,0,0,0,0,0,0,0.0074,0.0074,0.0073,0.0075,0.0074,0.0067,0.0066,0.0058,0.0056,0.0064,0.0064,0.0063,0.0047,0.0044,0.0043,0.0029,0.0035,0.0035,0.0034,0.0034,0.0029,0.003,0,0,0,0,0,0,0.0078,0.0074,0.0074,0.0073,0.0075,0.0067,0.0066,0.0068,0.0056,0.0054,0.0063,0.0063,0.0045,0.0044,0.0042,0.0051,0.0034,0.0034,0.0033,0.0029,0.0029,0.003,0,0,0,0,0,0,0.0078,0.0078,0.0074,0.0074,0.0073,0.0067,0.0069,0.0067,0.0067,0.0055,0.0053,0.0064,0.0045,0.0043,0.0038,0.005,0.0033,0.0032,0.0028,0.0029,0.003,0.0058,0,0,0,0,0,0,0.0078,0.0078,0.0079,0.0074,0.0073,0.0072,0.0068,0.0067,0.0066,0.0066,0.0055,0.0053,0.0045,0.0039,0.0037,0.0048,0.0032,0.0028,0.0029,0.0029,0.0057,0.006,0.0062,0,0,0,0,0,0.0078,0.0078,0.008,0.0079,0.0075,0.0072,0.0071,0.0066,0.0066,0.0066,0.006,0.0054,0.0043,0.0039,0.0036,0.0047,0.0028,0.0028,0.0029,0.0056,0.0059,0.0062,0,0,0,0,0,0,0.0075,0.0077,0.0079,0.0079,0.0078,0.0071,0.007,0.0068,0.0064,0.0065,0.0054,0.0052,0.0052,0.0045,0.0041,0.0049,0.0036,0.0036,0.0057,0.006,0.0063,0.0069,0.0031,0,0,0,0,0,0.0076,0.008,0.0079,0.0079,0.008,0.0076,0.0074,0.0073,0.0068,0.0067,0.006,0.0056,0.0054,0.0053,0.0046,0.0048,0.0034,0.0055,0.0058,0.006,0.0064,0.0059,0.0062,0.0033,0.0033,0.0033,0,0,0.0074,0.0077,0.0078,0.0079,0.0078,0.0083,0.0075,0.0075,0.0082,0.0065,0.007,0.0062,0.0055,0.0059,0.0059,0.0055,0.0058,0.0061,0.0064,0.0066,0.006,0.0063,0.0066,0.0034,0.0033,0.0033,0,0,0.0075,0.0076,0.0081,0.0083,0.0085,0.0085,0.0087,0.0085,0.0088,0.0089,0.0083,0.0082,0.0075,0.0076,0.0075,0.0089,0.0071,0.0089,0.0111,0.0107,0.0109,0.0111,0.0083,0.0082,0.0094,0.0094,0.0094,0,0.0073,0.0083,0.0081,0.0088,0.0095,0.0089,0.01,0.01,0.0097,0.0108,0.0095,0.0097,0.0085,0.01,0.0103,0.0096,0.0083,0.0099,0.011,0.0112,0.0114,0.0085,0.0084,0.0095,0.0095,0.0095,0.0095,0,0.008,0.0089,0.0092,0.0105,0.0109,0.0116,0.0121,0.0129,0.0132,0.0135,0.0146,0.0128,0.0135,0.0129,0.0117,0.013,0.0112,0.0112,0.0102,0.0118,0.0086,0.0085,0.0098,0.0097,0.0097,0.0096,0,0,0.0076,0.0095,0.0097,0.0119,0.0123,0.0137,0.0148,0.0169,0.0197,0.018,0.0207,0.0191,0.0186,0.0184,0.0172,0.0161,0.0149,0.0142,0.0141,0.0115,0.0123,0.0117,0.0114,0.0153,0.0154,0.0154,0.0092,0,0.0086,0.0111,0.0116,0.015,0.0168,0.0176,0.0196,0.0214,0.0225,0.0246,0.0229,0.0244,0.0207,0.0216,0.0198,0.0166,0.0148,0.0165,0.0112,0.011,0.0103,0.0114,0.0154,0.009,0.009,0.0089,0.0089,0,0.0096,0.0117,0.0146,0.0198,0.0208,0.0229,0.0281,0.0302,0.0323,0.0329,0.0331,0.0316,0.0298,0.0266,0.0209,0.0222,0.0175,0.014,0.0137,0.0122,0.0101,0.0074,0.0086,0.0086,0.0086,0.0086,0.0087,0,0.011,0.0148,0.0179,0.0191,0.0234,0.0264,0.0299,0.0332,0.0375,0.0389,0.0411,0.0378,0.0373,0.031,0.0226,0.0223,0.0154,0.0144,0.0089,0.0086,0.0096,0.0095,0.0105,0.0105,0.0105,0.0105,0.0105,0,0.0123,0.0154,0.0196,0.0215,0.0288,0.0302,0.039,0.0408,0.0451,0.0507,0.0464,0.0478,0.0386,0.0334,0.0247,0.0159,0.0169,0.0092,0.0077,0.0107,0.0108,0.0094,0.0093,0.0103,0.0103,0.0104,0.0104,0,0.0128,0.0148,0.0201,0.026,0.0295,0.0351,0.0466,0.0527,0.0544,0.061,0.0615,0.0562,0.0484,0.0381,0.0272,0.0198,0.0107,0.0073,0.0099,0.0086,0.0031,0.0033,0.0007,0.0006,0.0006,0.0005,0.0005,0,0.0133,0.0153,0.024,0.0305,0.0341,0.0441,0.0518,0.0573,0.063,0.0659,0.0678,0.0621,0.0572,0.0406,0.0284,0.0119,0.0096,0.0041,0.0045,0.0037,0.0025,0.0027,0.0029,0.0004,0.0004,0.0004,0.0004,0,0.0149,0.0174,0.0224,0.0344,0.044,0.0563,0.0663,0.0698,0.075,0.0769,0.0745,0.0657,0.0565,0.0413,0.0287,0.0167,0.0073,0.0036,0.0036,0.0038,0.0033,0.0022,0.0025,0.0002,0.0003,0.0003,0.0003,0,0.017,0.0215,0.0285,0.04,0.0521,0.0636,0.0694,0.0757,0.0807,0.0806,0.0793,0.0686,0.0623,0.0437,0.0318,0.0202,0.017,0.0128,0.0123,0.0123,0.0173,0.0185,0.0192,0,0,0,0,0,0.0194,0.0255,0.0352,0.047,0.0581,0.0659,0.077,0.0809,0.0834,0.0829,0.0815,0.0726,0.0549,0.0459,0.0345,0.0296,0.014,0.0155,0.0088,-0.0007,-0.0005,0.0034,0,0,0,0,0,0,0.0222,0.0297,0.0349,0.05,0.0587,0.0719,0.0792,0.0815,0.0807,0.0805,0.0709,0.0685,0.0506,0.0612,0.0335,0.03,0.0239,0.0077,0.0075,-0.0008,-0.0006,-0.0005,0.0036,0,0,0,0,0]}]]